Showing default

OPS 9331 (IDSCS 16), 2862

Orbit data source: Space-Track

OPS 9331 (IDSCS 16), 2862 is a payload satellite owned by SAMSO (US) in GEO that was launched on Sat, 01 Jul 1967 UTC via a TITAN IIIC launch vehicle from the Air Force Eastern Test Range (AFETR). Payloads include a variety of satellites, spacecraft, and rockets equipped with specific instruments for various scientific and technological missions. These include communications satellites like Starlink; space stations such as the ISS; scientific satellites like the Hubble; Earth observation satellites from companies like Planet Labs, Umbra, and HawkEye 360; GPS; miniature CubeSats for education and research; and military/defense satellites.

Not visible in the next 10 days
OPS 9331 (IDSCS 16) details
Identifier
2862, 1967-066A
Orbit
GEO
Last TLE update16 hours ago
Origin
Flag of USSAMSO (US)
ManufacturerPhilco-Ford WDL
MissionNon-operational Defense Communications
Bus & MotorIDCSP, Unknown motor
Mass45 kg wet, 45 kg dry
Launch date (UTC)
1967-07-01 (58 years ago)
Launch vehicle
TITAN IIIC
Launch site
Air Force Eastern Test Range (AFETR)
Object type
Payload
Rocket body
Debris
Shape & HBRPoly, 0.9 m
Radar Cross Section0.926 m², Medium (>0.1 m² and < 1m²)

Expand to show TLE details & history

TLE from 16 hours ago
0 OPS 9331 (IDSCS 16)
1 02862U 67066A   25044.17534083 -.00000080  00000-0  00000-0 0  9998
2 02862   1.7630 113.2143 0064499 217.1506 188.3572  1.09955306131823
Epoch: 2025-02-13T04:12Z
Definitive object data (Epoch: 2025-02-13T04:12:29.447Z)
Latitude1.27383°
Longitude-47.94527°
Altitude33,526.685 km
Speed3.15 km/s
True Right ascension10h 34m 31s
True Declination1° 16' 21"
Sunlit
Object was in daylight at TLE epoch
Visualization TLE readout
Latitude-1.46168°
Longitude-148.04319°
Altitude33,263.244 km
Speed3.171 km/s
Apparent Right ascension04h 22m 31s
Apparent Declination-7° 23' 40"
Sunlit
Object is in daylight
Visualization observer readout
Local Sidereal Time22:30:41
Azimuth96.982° ESE
Elevation-3.181°
Doppler factor1
Orbital elements
Apogee altitude33,530.077 km
Perigee altitude33,018.568 km
Semi-major axis39,652.459 km
Eccentricity0.0064499
Inclination1.763°
RAAN113.2143°
Arg. of periapsis217.1506°
True anomaly188.25063°
Mean anomaly188.3572°
Eccentric anomaly188.30383°
Mean motion0.27488 °/min
BSTARUnknown
Orbital period1309.68 mins
Loading historical data...
2862 neighbors
Authenticating...
Loading maneuver chart data...
Loading historical data...
Loading historical data...
Loading historical data...
Loading historical data...
Loading historical data...
Loading historical data...
Loading historical data...

OPS 9331 (IDSCS 16) Visibility forecast

Observer location: undefined°, undefined

OPS 9331 (IDSCS 16) is not visible in the next 10 days
Span
Click to sort rows by Start time (UTC) header in descending order
Start Az.
Max El. time (UTC)
Max El. Az.
Max El.
End time (UTC)
End Az.
|